sat.trackr.live / text

‹ back to catalog

STARLINK-2088

NORAD 47371 · 2021-005Y

PAYLOAD ACTIVE UNKNOWN

§ Identity

Operator
Country
US
Launch date
2021-01-20
Launch site
AFETR
Launch vehicle
Mass (kg)
RCS (m²)

Purposes: comms

External: N2YO · Heavens-Above · Gunter

§ Orbital elements

Epoch: 2026-05-25T02:02:42.251136Z

Period
94.01 min
Inclination
53.1628°
Eccentricity
0.0001284
Mean motion
15.31716526 rev/d
Perigee alt
469.8 km
Apogee alt
471.6 km
Semi-major
6,848.8 km
B*
5.2933e-5
RAAN
71.0368°
Arg perigee
93.4484°
Mean anomaly
266.6665°
Rev number
29,467

§ Raw data

STARLINK-20881 47371U 21005Y   26145.08521124  .00001279  00000+0  52933-4 0  99952 47371  53.1628  71.0368 0001284  93.4484 266.6665 15.31716526294673

JSON: /api/v1/satellites/47371 · /tle

For live sub-satellite position, see the globe view (requires WebGL).

§ Visibility from observer

Set your observer location to see the next 7 days of passes ≥ 10°. The values pass through the URL so the page stays shareable.

No JS? Fill the form by hand. The geolocation button needs JavaScript.